• Em Portugal
  • Lista de países
  • Para 7 dias
  • Temperatura da água
  • Mapas de satélite
  • Mapa do tempo
  • Widgets de tempo
  • user-avatar
    Iniciar Sessão

    Previsão horária em Jablow

    Hoje, 23 Setembro, Domingo

    Tempo Temperatura Precipitação Vento Pressão Humidade
    00:00 +10°C° 0 mm 3 m/s 716 mmHg 68%
    01:00 +10°C° 0 mm 4 m/s 716 mmHg 68%
    02:00 +10°C° 0 mm 4 m/s 716 mmHg 71%
    03:00 +8°C° 0 mm 4 m/s 716 mmHg 74%
    04:00 +9°C° 0 mm 3 m/s 716 mmHg 77%
    05:00 +9°C° 0 mm 3 m/s 715 mmHg 77%
    06:00 +9°C° 0 mm 3 m/s 715 mmHg 77%
    07:00 +10°C° 0 mm 4 m/s 715 mmHg 75%
    08:00 +11°C° 0 mm 4 m/s 715 mmHg 71%
    09:00 +11°C° 0 mm 4 m/s 715 mmHg 67%
    10:00 +12°C° 0 mm 4 m/s 715 mmHg 63%
    11:00 +12°C° 0 mm 4 m/s 714 mmHg 64%
    12:00 +12°C° 0 mm 4 m/s 714 mmHg 65%
    13:00 +12°C° 0 mm 4 m/s 713 mmHg 66%
    14:00 +12°C° 0.3 mm 4 m/s 712 mmHg 73%
    15:00 +11°C° 0.3 mm 4 m/s 710 mmHg 79%
    16:00 +11°C° 0.3 mm 4 m/s 709 mmHg 85%
    17:00 +11°C° 0.9 mm 6 m/s 708 mmHg 85%
    18:00 +12°C° 0.9 mm 7 m/s 706 mmHg 85%
    19:00 +13°C° 0.9 mm 8 m/s 705 mmHg 85%
    20:00 +12°C° 3.2 mm 7 m/s 705 mmHg 88%
    21:00 +10°C° 3.2 mm 6 m/s 705 mmHg 90%
    22:00 +10°C° 3.2 mm 4 m/s 705 mmHg 92%
    23:00 +8°C° 0.9 mm 6 m/s 707 mmHg 91%

    Amanhã, 24 Setembro, Segunda-feira

    Tempo Temperatura Precipitação Vento Pressão Humidade
    00:00 +6°C° 0.9 mm 7 m/s 708 mmHg 89%
    01:00 +5°C° 0.9 mm 9 m/s 710 mmHg 88%
    02:00 +5°C° 0.2 mm 8 m/s 711 mmHg 87%
    03:00 +5°C° 0.2 mm 7 m/s 713 mmHg 87%
    04:00 +4°C° 0.2 mm 7 m/s 714 mmHg 86%
    05:00 +4°C° 0.1 mm 7 m/s 715 mmHg 85%
    06:00 +4°C° 0.1 mm 8 m/s 715 mmHg 83%
    07:00 +4°C° 0.1 mm 8 m/s 716 mmHg 81%
    08:00 +4°C° 0.1 mm 8 m/s 717 mmHg 78%
    09:00 +5°C° 0.1 mm 9 m/s 718 mmHg 74%
    10:00 +5°C° 0.1 mm 9 m/s 719 mmHg 70%
    11:00 +6°C° 0.2 mm 9 m/s 719 mmHg 66%
    12:00 +7°C° 0.2 mm 9 m/s 720 mmHg 61%
    13:00 +7°C° 0.2 mm 10 m/s 720 mmHg 56%
    14:00 +7°C° 0.1 mm 9 m/s 720 mmHg 55%
    15:00 +7°C° 0.1 mm 9 m/s 720 mmHg 54%
    16:00 +7°C° 0.1 mm 9 m/s 720 mmHg 53%
    17:00 +6°C° 0 mm 8 m/s 721 mmHg 56%
    18:00 +5°C° 0 mm 6 m/s 721 mmHg 60%
    19:00 +5°C° 0 mm 5 m/s 721 mmHg 64%
    20:00 +3°C° 0 mm 5 m/s 722 mmHg 65%
    21:00 +3°C° 0 mm 5 m/s 722 mmHg 67%
    22:00 +3°C° 0 mm 4 m/s 723 mmHg 68%
    23:00 +3°C° 0 mm 4 m/s 723 mmHg 70%

    Depois de amanhã, 25 Setembro, Terça-feira

    Tempo Temperatura Precipitação Vento Pressão Humidade
    00:00 +3°C° 0 mm 4 m/s 724 mmHg 72%
    01:00 +3°C° 0 mm 4 m/s 724 mmHg 74%
    02:00 +1°C° 0 mm 4 m/s 725 mmHg 76%
    03:00 +1°C° 0 mm 4 m/s 725 mmHg 79%
    04:00 0°C° 0 mm 4 m/s 725 mmHg 81%
    05:00 +1°C° 0 mm 4 m/s 726 mmHg 81%
    06:00 +1°C° 0 mm 4 m/s 726 mmHg 80%
    07:00 +1°C° 0 mm 4 m/s 727 mmHg 80%
    08:00 +4°C° 0 mm 4 m/s 727 mmHg 73%
    09:00 +5°C° 0 mm 4 m/s 728 mmHg 65%
    10:00 +7°C° 0 mm 5 m/s 728 mmHg 58%
    11:00 +8°C° 0 mm 5 m/s 728 mmHg 54%
    12:00 +8°C° 0 mm 4 m/s 728 mmHg 50%
    13:00 +10°C° 0 mm 4 m/s 728 mmHg 47%
    14:00 +10°C° 0 mm 4 m/s 728 mmHg 47%
    15:00 +10°C° 0 mm 4 m/s 728 mmHg 48%
    16:00 +10°C° 0 mm 4 m/s 728 mmHg 48%
    17:00 +8°C° 0 mm 3 m/s 728 mmHg 54%
    18:00 +7°C° 0 mm 2 m/s 728 mmHg 59%
    19:00 +5°C° 0 mm 2 m/s 729 mmHg 65%
    20:00 +5°C° 0 mm 2 m/s 729 mmHg 66%
    21:00 +5°C° 0 mm 1 m/s 729 mmHg 67%
    22:00 +5°C° 0 mm 1 m/s 729 mmHg 68%
    23:00 +4°C° 0 mm 1 m/s 729 mmHg 69%

    26 Setembro, Quarta-feira

    Tempo Temperatura Precipitação Vento Pressão Humidade
    00:00 +4°C° 0 mm 1 m/s 729 mmHg 69%
    01:00 +4°C° 0 mm 1 m/s 729 mmHg 69%
    02:00 +4°C° 0 mm 1 m/s 729 mmHg 70%
    03:00 +3°C° 0 mm 2 m/s 728 mmHg 70%
    04:00 +2°C° 0 mm 2 m/s 728 mmHg 71%
    05:00 +3°C° 0 mm 2 m/s 728 mmHg 70%
    06:00 +3°C° 0 mm 2 m/s 728 mmHg 70%
    07:00 +4°C° 0 mm 2 m/s 728 mmHg 69%
    08:00 +6°C° 0 mm 2 m/s 728 mmHg 62%
    09:00 +8°C° 0 mm 3 m/s 728 mmHg 54%
    10:00 +10°C° 0 mm 3 m/s 728 mmHg 47%
    11:00 +11°C° 0 mm 4 m/s 728 mmHg 44%
    12:00 +12°C° 0 mm 4 m/s 727 mmHg 41%
    13:00 +13°C° 0 mm 4 m/s 727 mmHg 38%
    14:00 +13°C° 0 mm 4 m/s 726 mmHg 40%
    15:00 +13°C° 0 mm 4 m/s 726 mmHg 42%
    16:00 +12°C° 0 mm 3 m/s 725 mmHg 44%
    17:00 +11°C° 0 mm 3 m/s 725 mmHg 47%
    18:00 +10°C° 0 mm 3 m/s 725 mmHg 50%
    19:00 +9°C° 0 mm 3 m/s 724 mmHg 53%
    20:00 +8°C° 0 mm 3 m/s 724 mmHg 54%
    21:00 +8°C° 0 mm 3 m/s 724 mmHg 54%
    22:00 +7°C° 0 mm 4 m/s 724 mmHg 55%
    23:00 +8°C° 0 mm 3 m/s 724 mmHg 56%

    27 Setembro, Quinta-feira

    Tempo Temperatura Precipitação Vento Pressão Humidade
    00:00 +8°C° 0 mm 3 m/s 724 mmHg 57%
    01:00 +8°C° 0 mm 3 m/s 723 mmHg 58%
    02:00 +8°C° 0 mm 3 m/s 723 mmHg 58%
    03:00 +8°C° 0 mm 3 m/s 723 mmHg 58%
    04:00 +8°C° 0 mm 3 m/s 723 mmHg 57%
    05:00 +8°C° 0 mm 3 m/s 723 mmHg 58%
    06:00 +9°C° 0 mm 3 m/s 723 mmHg 58%
    07:00 +9°C° 0 mm 3 m/s 723 mmHg 59%
    08:00 +11°C° 0 mm 4 m/s 723 mmHg 56%
    09:00 +13°C° 0 mm 4 m/s 724 mmHg 53%
    10:00 +15°C° 0 mm 4 m/s 724 mmHg 51%
    11:00 +17°C° 0 mm 4 m/s 724 mmHg 50%
    12:00 +18°C° 0 mm 4 m/s 723 mmHg 50%
    13:00 +20°C° 0 mm 4 m/s 723 mmHg 50%
    14:00 +19°C° 0 mm 4 m/s 723 mmHg 51%
    15:00 +19°C° 0 mm 3 m/s 722 mmHg 52%
    16:00 +19°C° 0 mm 3 m/s 722 mmHg 53%
    17:00 +18°C° 0 mm 3 m/s 722 mmHg 58%
    18:00 +16°C° 0 mm 2 m/s 721 mmHg 63%
    19:00 +14°C° 0 mm 2 m/s 721 mmHg 67%
    20:00 +13°C° 0 mm 2 m/s 721 mmHg 67%
    21:00 +13°C° 0 mm 2 m/s 720 mmHg 67%
    22:00 +13°C° 0 mm 2 m/s 720 mmHg 67%
    23:00 +12°C° 0 mm 2 m/s 720 mmHg 68%

    28 Setembro, Sexta-feira

    Tempo Temperatura Precipitação Vento Pressão Humidade
    00:00 +12°C° 0 mm 2 m/s 719 mmHg 69%
    01:00 +12°C° 0 mm 2 m/s 719 mmHg 70%
    02:00 +12°C° 0 mm 2 m/s 719 mmHg 71%
    03:00 +10°C° 0 mm 2 m/s 718 mmHg 71%
    04:00 +10°C° 0 mm 2 m/s 718 mmHg 72%
    05:00 +10°C° 0 mm 2 m/s 718 mmHg 72%
    06:00 +10°C° 0 mm 2 m/s 718 mmHg 71%
    07:00 +10°C° 0 mm 2 m/s 718 mmHg 71%
    08:00 +13°C° 0 mm 2 m/s 718 mmHg 63%
    09:00 +15°C° 0 mm 2 m/s 718 mmHg 56%
    10:00 +17°C° 0 mm 2 m/s 718 mmHg 49%
    11:00 +18°C° 0 mm 2 m/s 718 mmHg 47%
    12:00 +19°C° 0 mm 2 m/s 718 mmHg 45%
    13:00 +20°C° 0 mm 2 m/s 718 mmHg 43%
    14:00 +19°C° 0 mm 2 m/s 718 mmHg 45%
    15:00 +19°C° 0 mm 2 m/s 718 mmHg 48%
    16:00 +19°C° 0 mm 2 m/s 718 mmHg 50%
    17:00 +16°C° 0 mm 2 m/s 718 mmHg 61%
    18:00 +14°C° 0 mm 2 m/s 718 mmHg 71%
    19:00 +12°C° 0 mm 2 m/s 718 mmHg 81%
    20:00 +12°C° 0 mm 2 m/s 718 mmHg 84%
    21:00 +12°C° 0 mm 2 m/s 718 mmHg 87%
    22:00 +10°C° 0 mm 2 m/s 718 mmHg 90%
    23:00 +10°C° 0 mm 2 m/s 718 mmHg 90%
    Mostrar mais